Regional Weather Roundup
Issued by NWS

Home | Current Version | Previous Version | Graphics & Text | Print | Product List | Glossary On
Versions: 1 2 3 4 5 6 7 8 9 10 11 12 13 14 15 16 17 18 19 20 21 22 23 24 25 26 27 28 29 30 31 32 33 34 35 36 37 38 39 40 41 42 43 44 45 46 47 48 49 50
000
ASUS43 KIND 250159
RWRIN

WEATHER ROUNDUP FOR INDIANA
NATIONAL WEATHER SERVICE INDIANAPOLIS IN
900 PM EST WED DEC 24 2014

NOTE: "FAIR" INDICATES FEW OR NO CLOUDS BELOW 12,000 FEET WITH NO
SIGNIFICANT WEATHER AND/OR OBSTRUCTIONS TO VISIBILITY.

* - STATION DOES NOT REPORT WEATHER SUCH AS PRECIPITATION OR FOG.

+ - STATION NOT QUALITY CONTROLLED BY THE NATIONAL WEATHER SERVICE.
    USE DATA WITH CAUTION...ESPECIALLY DEWPOINT AND RELATIVE
    HUMIDITY OBSERVATIONS.

INZ001>003-010>013-019-020-250300-
NORTHWEST INDIANA

CITY           SKY/WX    TMP DP  RH WIND       PRES   REMARKS
GARY /AIRPORT/ CLOUDY    37  32  81 W16       29.57R
VALPARAISO     NOT AVBL

$$

LMZ046-743>745-250300-
SOUTHERN LAKE MICHIGAN

STATION/POSITION TIME  TEMP WIND        PRES
                       AIR  DIR/SP/G
                 (UTC) (F)  (DEG/KT/KT) (MB)
MICHIGAN CITY    0100   36  220/ 18/ 20   N/A

$$

INZ004-005-014>016-021>024-250300-
NORTH CENTRAL INDIANA

CITY           SKY/WX    TMP DP  RH WIND       PRES   REMARKS
GOSHEN         LGT RAIN  36  34  92 SW13      29.53R
PERU/GRISSOM   CLOUDY    36  36 100 W15       29.59R
SOUTH BEND     LGT RAIN  37  35  92 W10       29.53R

$$

INZ006>009-017-018-025>027-250300-
NORTHEAST INDIANA

CITY           SKY/WX    TMP DP  RH WIND       PRES   REMARKS
ANGOLA *+      CLOUDY    34  34 100 W10       29.50R WCI  26
FORT WAYNE     LGT RAIN  37  34  89 W17G25    29.57R

$$

INZ028-029-035-036-043>045-051>053-250300-
WEST CENTRAL INDIANA

CITY           SKY/WX    TMP DP  RH WIND       PRES   REMARKS
GREENCASTLE +  CLOUDY    36  32  87 W8        29.68R
LAFAYETTE      CLOUDY    36  34  92 W10       29.63R
TERRE HAUTE    CLOUDY    38  34  85 W14       29.71R

$$

INZ030>032-037>040-046>048-054>057-064-065-250300-
CENTRAL INDIANA

CITY           SKY/WX    TMP DP  RH WIND       PRES   REMARKS
COLUMBUS       CLOUDY    37  36  93 SW8       29.70R
INDIANAPOLIS   FLURRIES  36  34  92 W21G26    29.66R
-EAGLE CREEK   LGT RAIN  35  34  96 W8        29.65R WCI  29
KOKOMO *+      CLOUDY    36  32  87 W15G21    29.61R
MT COMFORT *+  CLOUDY    37 N/A N/A W10       29.66R
SHELBYVILLE    CLOUDY    39  35  86 SW13      29.66R

$$

INZ033-034-041-042-049-050-058-059-250300-
EAST CENTRAL INDIANA

CITY           SKY/WX    TMP DP  RH WIND       PRES   REMARKS
MUNCIE         CLOUDY    37  34  89 W15G23    29.61R

$$

INZ060-061-067>069-081>083-085>088-250300-
SOUTHWEST INDIANA

CITY           SKY/WX    TMP DP  RH WIND       PRES   REMARKS
EVANSVILLE     CLOUDY    41  35  79 W13       29.80R
HUNTINGBURG *+ CLOUDY    39  34  81 W16G22    29.78R

$$

INZ062-063-066-070>080-084-089>092-250300-
SOUTH CENTRAL AND SOUTHEAST INDIANA

CITY           SKY/WX    TMP DP  RH WIND       PRES   REMARKS
BLOOMINGTON    LGT RAIN  37  35  92 W14G21    29.70R FOG

$$



USA.gov is the U.S. government's official web portal to all federal, state and local government web resources and services.